Weather History for KHSI - December, 2010

Change the Weather History Date:

Friday, December 31, 2010

  Actual Average Record
Temperature  
Mean Temperature 4 °F 26 °F  
Max Temperature 10 °F 35 °F 61 °F (1956)
Min Temperature -3 °F 16 °F -13 °F (1968)
Degree Days  
Heating Degree Days 61 39  
Month to date heating degree days 1200 1157  
Since 1 July heating degree days 2319 2440  
Cooling Degree Days 0 0  
Month to date cooling degree days 0 0  
Year to date cooling degree days 1172 1077  
Moisture  
Dew Point -2 °F    
Average Humidity 75    
Maximum Humidity 87    
Minimum Humidity 62    
Precipitation  
Precipitation 0.19 in 0.02 in 0.65 in (1931)
Month to date precipitation 0.28 0.61  
Year to date precipitation 26.90 27.11  
Snow  
Snow 2.40 in 0.20 in 6.00 in (1931)
Month to date snowfall 3.3 6.1  
Since 1 July snowfall 3.4 9.9  
Snow Depth 6.00 in    
Sea Level Pressure  
Sea Level Pressure 29.69 in    
Wind  
Wind Speed 15 mph (NW)    
Max Wind Speed 25 mph    
Max Gust Speed 32 mph    
Visibility 4 miles    
Events Fog , Snow    
T = Trace of Precipitation, MM = Missing Value Source: NWS Daily Summary

Daily Weather History Graph

Daily Weather History Graph

Search for Another Location

Airport or City:

Trip Planner

Search our weather history database for the weather conditions in past years. The results will help you decide how hot, cold, wet, or windy it might be!

Date:

Astronomy

Dec. 31, 2010 Rise Set
Actual Time 7:57 AM CST 5:16 PM CST
Civil Twilight 7:26 AM CST 5:47 PM CST
Nautical Twilight 6:52 AM CST 6:21 PM CST
Astronomical Twilight 6:18 AM CST 6:54 PM CST
Moon 4:27 AM CST (12/31) 2:05 PM CST (12/31)
Length of Visible Light 10h 20m
Length of Day
9h 19m
Waning Crescent, 14% of the Moon is Illuminated
Dec 31
Waning Crescent
Jan 4
New
Jan 12
First Quarter
Jan 19
Full
Jan 26
Last Quarter

Hourly Weather History & Observations

Time (CST) Temp. Windchill Dew Point Humidity Pressure Visibility Wind Dir Wind Speed Gust Speed Precip Events Conditions
12:53 AM 9.0 °F -10.0 °F 1.9 °F 73% 29.70 in 10.0 mi NNE 19.6 mph 25.3 mph N/A   Overcast
1:53 AM 9.0 °F -9.0 °F 1.0 °F 70% 29.73 in 10.0 mi NNE 17.3 mph - N/A   Overcast
2:53 AM 9.0 °F -7.9 °F 1.9 °F 73% 29.72 in 10.0 mi North 15.0 mph 24.2 mph N/A   Overcast
3:31 AM 6.8 °F -12.4 °F 1.4 °F 79% 29.61 in 1.8 mi NNE 18.4 mph - 0.00 in Snow Light Snow
3:49 AM 6.8 °F -10.0 °F 1.4 °F 79% 29.62 in 1.0 mi NNE 13.8 mph - N/A Snow Light Snow
3:53 AM 7.0 °F -9.8 °F 3.0 °F 84% 29.72 in 1.0 mi NNE 13.8 mph - 0.00 in Snow Light Snow
4:01 AM 6.8 °F -10.0 °F 3.2 °F 85% 29.62 in 0.5 mi North 13.8 mph - 0.00 in Fog , Snow Snow
4:12 AM 6.8 °F -9.3 °F 3.2 °F 85% 29.61 in 0.5 mi NNE 12.7 mph - 0.01 in Fog , Snow Snow
4:53 AM 6.1 °F -14.3 °F 1.9 °F 83% 29.65 in 0.8 mi NNE 20.7 mph 28.8 mph 0.02 in Snow Light Snow
5:16 AM 6.8 °F -12.9 °F 1.4 °F 79% 29.54 in 1.0 mi NE 19.6 mph 28.8 mph 0.00 in Snow Light Snow
5:25 AM 6.8 °F -14.3 °F 1.4 °F 79% 29.53 in 2.5 mi NE 23.0 mph - 0.00 in Snow Light Snow
5:33 AM 6.8 °F -11.3 °F 1.4 °F 79% 29.55 in 1.5 mi NE 16.1 mph 27.6 mph 0.00 in Snow Light Snow
5:53 AM 6.1 °F -8.7 °F 1.9 °F 83% 29.67 in 1.2 mi NNE 10.4 mph 23.0 mph 0.01 in Snow Light Snow
6:07 AM 6.8 °F -9.3 °F 1.4 °F 79% 29.54 in 2.5 mi North 12.7 mph - 0.00 in Snow Light Snow
6:18 AM 6.8 °F -10.0 °F 1.4 °F 79% 29.56 in 3.0 mi North 13.8 mph - 0.00 in Snow Light Snow
6:53 AM 6.1 °F -10.2 °F 1.0 °F 80% 29.68 in 5.0 mi North 12.7 mph - 0.00 in Snow Light Snow
7:04 AM 6.8 °F -10.0 °F 1.4 °F 79% 29.55 in 2.5 mi North 13.8 mph - 0.00 in Snow Light Snow
7:10 AM 6.8 °F -10.0 °F 1.4 °F 79% 29.55 in 1.8 mi North 13.8 mph - 0.00 in Snow Light Snow
7:33 AM 6.8 °F -7.8 °F 1.4 °F 79% 29.56 in 1.0 mi North 10.4 mph - 0.00 in Snow Light Snow
7:53 AM 6.1 °F -10.2 °F 1.9 °F 83% 29.67 in 1.0 mi North 12.7 mph - 0.00 in Snow Light Snow
8:04 AM 5.0 °F -13.0 °F 1.4 °F 85% 29.57 in 0.8 mi North 15.0 mph - 0.01 in Snow Light Snow
8:36 AM 5.0 °F -11.6 °F 1.4 °F 85% 29.62 in 0.2 mi NW 12.7 mph - 0.01 in Fog , Snow Heavy Snow
8:53 AM 5.0 °F -12.3 °F 1.0 °F 84% 29.73 in 0.5 mi NNW 13.8 mph - 0.01 in Fog , Snow Snow
9:02 AM 5.0 °F -13.6 °F 1.4 °F 85% 29.62 in 0.2 mi NNW 16.1 mph - 0.01 in Fog , Snow Heavy Snow
9:15 AM 3.2 °F -14.6 °F -0.4 °F 85% 29.64 in 1.0 mi NW 13.8 mph - 0.01 in Snow Light Snow
9:25 AM 3.2 °F -13.9 °F -0.4 °F 85% 29.63 in 3.0 mi NNW 12.7 mph - 0.01 in Snow Light Snow
9:39 AM 3.2 °F -15.3 °F -0.4 °F 85% 29.62 in 1.8 mi NNW 15.0 mph - 0.01 in Snow Light Snow
9:53 AM 3.9 °F -14.3 °F -0.9 °F 80% 29.75 in 2.0 mi NNW 15.0 mph - 0.01 in Snow Light Snow
10:41 AM 3.2 °F -15.3 °F -2.2 °F 78% 29.63 in 3.0 mi NNW 15.0 mph - 0.00 in Snow Light Snow
10:53 AM 3.9 °F -14.3 °F -2.9 °F 73% 29.76 in 3.0 mi NW 15.0 mph - 0.00 in Snow Light Snow
11:44 AM 3.2 °F -16.5 °F -4.0 °F 72% 29.63 in 2.5 mi NW 17.3 mph - 0.00 in Snow Light Snow
11:53 AM 3.9 °F -14.3 °F -4.0 °F 70% 29.75 in 10.0 mi NW 15.0 mph - 0.00 in   Overcast
12:53 PM 3.2 °F -13.9 °F -2.2 °F 78% 29.63 in 5.0 mi NW 12.7 mph - N/A Snow Light Snow
1:01 PM 3.2 °F -13.9 °F -5.8 °F 66% 29.63 in 9.0 mi NW 12.7 mph - 0.00 in   Scattered Clouds
1:49 PM 3.2 °F -13.9 °F -4.0 °F 72% 29.64 in 6.0 mi West 12.7 mph - N/A Snow Light Snow
1:53 PM 3.9 °F -13.7 °F -4.0 °F 70% 29.76 in 2.5 mi WNW 13.8 mph - 0.00 in Snow Light Snow
2:01 PM 3.2 °F -16.5 °F -2.2 °F 78% 29.64 in 1.5 mi WNW 17.3 mph - 0.00 in Snow Light Snow
2:03 PM 3.2 °F -16.5 °F -2.2 °F 78% 29.64 in 2.0 mi WNW 17.3 mph - 0.00 in Snow Light Snow
2:11 PM 3.2 °F -17.1 °F -4.0 °F 72% 29.64 in 4.0 mi West 18.4 mph - 0.00 in Snow Light Snow
2:26 PM 3.2 °F -14.6 °F -5.8 °F 66% 29.64 in 10.0 mi WNW 13.8 mph - 0.00 in   Scattered Clouds
2:53 PM 3.0 °F -16.1 °F -7.1 °F 63% 29.78 in 10.0 mi West 16.1 mph - 0.00 in   Partly Cloudy
3:07 PM 3.2 °F -15.3 °F -5.8 °F 66% 29.65 in 10.0 mi West 15.0 mph - N/A   Mostly Cloudy
3:15 PM 3.2 °F -15.9 °F -5.8 °F 66% 29.66 in 10.0 mi WNW 16.1 mph - N/A   Scattered Clouds
3:22 PM 1.4 °F -18.2 °F -4.0 °F 78% 29.66 in 2.5 mi West 16.1 mph - 0.00 in Snow Light Snow
3:36 PM 3.2 °F -13.9 °F -2.2 °F 78% 29.67 in 1.0 mi West 12.7 mph - 0.00 in Snow Light Snow
3:48 PM 3.2 °F -17.1 °F -2.2 °F 78% 29.67 in 3.0 mi West 18.4 mph - 0.00 in Snow Light Snow
3:53 PM 3.0 °F -17.3 °F -4.0 °F 73% 29.81 in 6.0 mi West 18.4 mph 23.0 mph 0.00 in   Haze
3:56 PM 3.2 °F -16.5 °F -4.0 °F 72% 29.68 in 2.5 mi West 17.3 mph 23.0 mph 0.00 in Snow Light Snow
4:03 PM 3.2 °F -15.9 °F -4.0 °F 72% 29.68 in 3.0 mi West 16.1 mph - 0.00 in Snow Light Snow
4:53 PM 1.9 °F -18.1 °F -9.9 °F 58% 29.83 in 10.0 mi West 17.3 mph - 0.00 in   Clear
5:53 PM -0.9 °F -19.9 °F -9.0 °F 69% 29.85 in 10.0 mi WSW 13.8 mph - N/A   Clear
6:53 PM -2.9 °F -17.7 °F -9.9 °F 72% 29.88 in 10.0 mi WSW 8.1 mph - N/A   Clear
7:53 PM 1.0 °F -19.3 °F -6.0 °F 72% 29.90 in 10.0 mi WSW 17.3 mph 24.2 mph N/A   Clear
8:36 PM 1.4 °F -18.8 °F -2.2 °F 85% 29.77 in 6.0 mi West 17.3 mph - N/A Snow Blowing Snow
8:53 PM 1.9 °F -16.2 °F -4.0 °F 76% 29.90 in 7.0 mi West 13.8 mph - N/A   Overcast
9:22 PM -0.4 °F -15.7 °F -5.8 °F 78% 29.77 in 10.0 mi WSW 9.2 mph - N/A   Scattered Clouds
9:53 PM 1.0 °F -18.7 °F -6.0 °F 72% 29.90 in 10.0 mi West 16.1 mph - N/A   Clear
10:53 PM 7.0 °F -12.6 °F -2.0 °F 67% 29.92 in 10.0 mi West 19.6 mph - N/A   Partly Cloudy
11:53 PM 9.0 °F -10.0 °F -0.0 °F 67% 29.92 in 9.0 mi West 19.6 mph 27.6 mph N/A   Mostly Cloudy